Retour au catalogue

THOR ABLESTAR R/B

ActifLEO
NORAD 447·ROCKET BODY·🇺🇸 United States

Lancé Oct 31, 1962 depuis Cape Canaveral Space Force Station

Loading…

Prochains Passages (prochaines 24 heures)

TLE

FraisSource: Space-Track

Époque: Sep 14, 2026, 05:48 UTC

1 00447U 62060B   26257.24209409 -.00000104  00000-0  43871-4 0  9994
2 00447  50.1287 196.4092 0065796  85.0401  81.9041 13.39177150124009

Suivez THOR ABLESTAR R/B en temps réel avec AllMySat

Download on the App Store